Weather in Yagodnoe

Russia / Samara Oblast     53°36′39″N   49°02′21″E
temp.,
°C
wind,
m/s
gust,
m/s
humid.,
%
clouds,
%
prec.,
mm/h
press.,
hPa
HPBL,
m
22 may, sun
sun2201:00+4w357769 0.0 100695
04:00+3w338191 0.0 100655
07:00+6wsw227481 0.1 1003195
10:00+6ne328399 0.2 1003526
13:00+7nne327774 0.1 1002639
16:00+9n326999 0.1 1000802
19:00+10nne456786 0.0 999389
22:00+8ne4770100 0.0 999208
23 may, mon
mon2301:00+7n3578100 0.1 998211
04:00+6n4583100 0.3 998238
07:00+5nne578199 0.1 999408
10:00+7n446997 0.1 9991025
13:00+8nw1259100 0.0 10001090
16:00+9wnw345999 0.0 10021254
19:00+8w356599 0.1 1002712
22:00+5wnw347683 0.1 100394
24 may, tue
tue2401:00+3w357833 0.0 1004119
04:00+2wsw36822 0.0 1005149
07:00+5sw46725 0.0 1005267
10:00+10sw68625 0.0 10051052
13:00+14sw684590 0.1 10052189
16:00+15wsw584298 0.1 10052195
19:00+12ne235869 0.0 1006126
22:00+8nne367098 0.0 1008140
25 may, wed
wed2501:00+7nnw1283100 0.2 1008119
04:00+6nnw4593100 0.5 1008490
07:00+5nnw3590100 0.4 1010646
10:00+7nw347299 0.5 1011996
13:00+9nnw3359100 0.1 10111256
16:00+10nw345490 0.3 10121458
19:00+10wnw356281 0.1 1012581
22:00+6wnw48825 0.3 1013196
26 may, thu
thu2601:00+4wnw48865 0.0 1014152
04:00+3w48845 0.0 1014168
07:00+6w587481 0.0 1014314
10:00+10wsw566144 0.0 10141159
13:00+11wsw5752100 0.1 10131731
16:00+12sw6752100 0.1 10121579
19:00+12ssw4867100 0.0 1010294
22:00+11ssw71477100 0.2 1008481